This is the latest recevied weather packets stored in our database for station/object HS3MXC-2. If no packets are shown the sender has not sent any weather packets the latest 10 day(s).
| Time | Temp. | Humidity | Pressure | Rain* | Wind** | Luminosity | Snow |
|---|---|---|---|---|---|---|---|
| 1777295306 | 29.44° C | 62% | 993.1 hPa | - | - | - | - |
| 1777294997 | 29.44° C | 61% | 993.1 hPa | - | - | - | - |
| 1777294690 | 29.44° C | 61% | 993 hPa | - | - | - | - |
| 1777293462 | 29.44° C | 60% | 993 hPa | - | - | - | - |
| 1777293155 | 29.44° C | 60% | 992.9 hPa | - | - | - | - |
| 1777292848 | 29.44° C | 60% | 992.9 hPa | - | - | - | - |
| 1777292541 | 30° C | 60% | 992.9 hPa | - | - | - | - |
| 1777292234 | 30° C | 60% | 992.8 hPa | - | - | - | - |
| 1777291927 | 30° C | 60% | 992.8 hPa | - | - | - | - |
| 1777291313 | 30° C | 59% | 992.6 hPa | - | - | - | - |
| 1777290699 | 30° C | 60% | 992.5 hPa | - | - | - | - |
| 1777290392 | 30° C | 60% | 992.5 hPa | - | - | - | - |
| 1777290085 | 30° C | 59% | 992.4 hPa | - | - | - | - |
| 1777289471 | 30° C | 60% | 992.3 hPa | - | - | - | - |
| 1777289165 | 30° C | 60% | 992.2 hPa | - | - | - | - |
| 1777288858 | 30° C | 63% | 992.3 hPa | - | - | - | - |
| 1777288551 | 30° C | 63% | 992.1 hPa | - | - | - | - |
| 1777288245 | 30° C | 64% | 992 hPa | - | - | - | - |
| 1777287631 | 29.44° C | 64% | 991.7 hPa | - | - | - | - |
| 1777287323 | 29.44° C | 63% | 991.6 hPa | - | - | - | - |
| 1777286403 | 29.44° C | 58% | 991.3 hPa | - | - | - | - |
| 1777286096 | 29.44° C | 55% | 991.3 hPa | - | - | - | - |
| 1777285788 | 29.44° C | 56% | 991.3 hPa | - | - | - | - |
| 1777285480 | 29.44° C | 52% | 991.3 hPa | - | - | - | - |
| 1777285174 | 29.44° C | 50% | 991.3 hPa | - | - | - | - |
* Rain since midnight (hover to see other rain measurements)
** Current wind speed in m/s (hover to see current wind gust speed)